WB7CYS Weather Reports


Display with metric or nautical units.
time (UTC)temp
F
wind
direction
speed
MPH
gust
MPH
rain 1hr
in
rain 24hr
in
rain mn
in
humidity
%
barometer
mb
20260509154559 59 273 2.0 5.0 0.00 0.00 0.00 58 1019.7
20260509153056 59 108 2.0 4.0 0.00 0.00 0.00 60 1019.5
20260509151615 58 124 1.0 3.0 0.00 0.00 0.00 60 1019.4
20260509150053 56 105 3.0 5.0 0.00 0.00 0.00 63 1019.5
20260509144547 55 77 3.0 6.0 0.00 0.00 0.00 65 1019.4
20260509143057 54 77 4.0 10.0 0.00 0.00 0.00 68 1019.3
20260509141550 53 113 3.0 13.0 0.00 0.00 0.00 68 1019.3
20260509140045 51 85 5.0 8.0 0.00 0.00 0.00 70 1019.3
20260509134546 50 95 6.0 10.0 0.00 0.00 0.00 72 1019.3
20260509133043 49 82 7.0 10.0 0.00 0.00 0.00 74 1019.3
20260509131555 0 0.0 0.0 0.00 0.00 0.00 1019.2
20260509130056 0 0.0 0.0 0.00 0.00 0.00 1019.2
20260509124534 0 0.0 0.0 0.00 0.00 0.00 1019.1
20260509123044 0 0.0 0.0 0.00 0.00 0.00 1019.1
20260509121522 0 0.0 0.0 0.00 0.00 0.00 1019.0
20260509120024 0 0.0 0.0 0.00 0.00 0.00 1018.9
20260509114518 0 0.0 0.0 0.00 0.00 0.00 1019.0
20260509113009 0 0.0 0.0 0.00 0.00 0.00 1019.0
20260509111505 0 0.0 0.0 0.00 0.00 0.00 1019.1
20260509104556 0 0.0 0.0 0.00 0.00 0.00 1019.0
20260509103100 51 231 3.0 8.0 0.00 0.00 0.00 68 1019.0
20260509101600 51 201 4.0 8.0 0.00 0.00 0.00 69 1018.9
20260509100048 52 212 3.0 5.0 0.00 0.00 0.00 67 1018.8
20260509094550 52 224 3.0 5.0 0.00 0.00 0.00 68 1018.8
20260509093046 52 222 4.0 8.0 0.00 0.00 0.00 67 1018.7
20260509091544 52 141 3.0 7.0 0.00 0.00 0.00 67 1018.6
20260509090043 53 204 4.0 6.0 0.00 0.00 0.00 64 1018.6
20260509084536 55 221 4.0 8.0 0.00 0.00 0.00 62 1018.4
20260509083035 55 224 4.0 7.0 0.00 0.00 0.00 61 1018.4
20260509081532 54 131 2.0 8.0 0.00 0.00 0.00 62 1018.4
20260509080029 55 252 4.0 8.0 0.00 0.00 0.00 61 1018.2
20260509074527 55 210 4.0 6.0 0.00 0.00 0.00 61 1018.3
20260509073025 56 229 3.0 7.0 0.00 0.00 0.00 59 1018.1
20260509071520 55 208 3.0 6.0 0.00 0.00 0.00 59 1017.8
20260509070017 55 250 3.0 6.0 0.00 0.00 0.00 59 1017.7
20260509064516 55 196 3.0 5.0 0.00 0.00 0.00 59 1017.7
20260509063014 56 271 4.0 7.0 0.00 0.00 0.00 58 1017.7
20260509061516 56 222 4.0 7.0 0.00 0.00 0.00 56 1017.8
20260509060012 56 236 3.0 7.0 0.00 0.00 0.00 56 1017.6
20260509054510 57 222 5.0 8.0 0.00 0.00 0.00 54 1017.4
20260509053012 58 229 5.0 7.0 0.00 0.00 0.00 52 1017.3
20260509051507 59 245 6.0 10.0 0.00 0.00 0.00 50 1017.1
20260509050004 59 248 7.0 14.0 0.00 0.00 0.00 49 1016.9
20260509044501 60 245 7.0 13.0 0.00 0.00 0.00 47 1016.8
20260509043059 60 238 10.0 14.0 0.00 0.00 0.00 46 1016.5
20260509041600 61 212 10.0 16.0 0.00 0.00 0.00 44 1016.5
20260509040055 62 232 10.0 17.0 0.00 0.00 0.00 43 1016.1
20260509034553 61 243 9.0 13.0 0.00 0.00 0.00 44 1015.7
20260509033051 62 240 9.0 13.0 0.00 0.00 0.00 43 1015.4
20260509031604 63 235 6.0 13.0 0.00 0.00 0.00 41 1015.3
20260509030048 64 248 7.0 13.0 0.00 0.00 0.00 39 1014.8
20260509024546 66 259 7.0 18.0 0.00 0.00 0.00 37 1014.6
20260509023045 67 274 19.0 24.0 0.00 0.00 0.00 35 1014.2
20260509021545 68 264 14.0 19.0 0.00 0.00 0.00 34 1014.2
20260509020048 68 277 16.0 27.0 0.00 0.00 0.00 34 1014.0
20260509014545 69 288 17.0 27.0 0.00 0.00 0.00 32 1013.9
20260509013044 70 260 17.0 23.0 0.00 0.00 0.00 28 1013.9
20260509011546 71 275 16.0 23.0 0.00 0.00 0.00 28 1013.9
20260509010046 71 257 15.0 22.0 0.00 0.00 0.00 27 1013.9
20260509004541 71 277 18.0 30.0 0.00 0.00 0.00 26 1013.9
20260509003045 71 266 25.0 34.0 0.00 0.00 0.00 27 1013.7
20260509001538 72 259 18.0 31.0 0.00 0.00 0.00 24 1013.9
20260509000043 71 271 17.0 29.0 0.00 0.00 0.00 22 1013.9
20260508234537 72 270 20.0 30.0 0.00 0.00 0.00 24 1013.9
20260508233036 72 252 22.0 29.0 0.00 0.00 0.00 18 1013.9
20260508231536 72 278 21.0 33.0 0.00 0.00 0.00 18 1013.8
20260508230044 71 270 25.0 32.0 0.00 0.00 0.00 21 1013.7
20260508224537 72 248 16.0 25.0 0.00 0.00 0.00 23 1013.8
20260508223035 71 260 15.0 27.0 0.00 0.00 0.00 24 1013.9
20260508221531 70 267 17.0 26.0 0.00 0.00 0.00 24 1014.0
20260508220104 70 275 18.0 26.0 0.00 0.00 0.00 23 1014.1
20260508214529 70 285 20.0 28.0 0.00 0.00 0.00 27 1014.0
20260508213033 70 250 20.0 26.0 0.00 0.00 0.00 30 1013.9
20260508211530 69 282 21.0 28.0 0.00 0.00 0.00 33 1014.1
20260508210028 70 278 26.0 35.0 0.00 0.00 0.00 33 1013.8
20260508204525 71 286 6.0 11.0 0.00 0.00 0.00 33 1013.8
20260508203023 71 145 2.0 4.0 0.00 0.00 0.00 32 1013.6
20260508201526 69 312 1.0 7.0 0.00 0.00 0.00 35 1013.7
20260508200020 69 276 5.0 9.0 0.00 0.00 0.00 33 1013.7
20260508194519 69 288 3.0 10.0 0.00 0.00 0.00 36 1013.8
20260508193018 68 283 3.0 12.0 0.00 0.00 0.00 40 1013.9
20260508191518 68 319 0.0 6.0 0.00 0.00 0.00 39 1014.1
20260508190014 67 187 4.0 8.0 0.00 0.00 0.00 40 1014.2
20260508184519 66 228 5.0 9.0 0.00 0.00 0.00 39 1014.4
20260508183010 65 271 3.0 7.0 0.00 0.00 0.00 43 1014.6
20260508181508 64 243 6.0 8.0 0.00 0.00 0.00 42 1014.8
20260508180009 64 208 6.0 9.0 0.00 0.00 0.00 41 1014.9
20260508174507 64 224 4.0 7.0 0.00 0.00 0.00 42 1015.0
20260508173003 63 253 1.0 6.0 0.00 0.00 0.00 43 1015.1
20260508171600 63 214 4.0 6.0 0.00 0.00 0.00 43 1015.0
20260508164555 62 165 1.0 4.0 0.00 0.00 0.00 46 1014.8
20260508163053 62 291 2.0 5.0 0.00 0.00 0.00 45 1014.6
20260508161548 60 104 2.0 4.0 0.00 0.00 0.00 47 1014.6